Weather History for Elmira, NY

Change the Weather History Date:

Saturday, September 28, 2013

  Actual Average Record
Temperature  
Mean Temperature 56 °F -  
Max Temperature 70 °F 67 °F 86 °F (1948)
Min Temperature 42 °F 42 °F 23 °F (1947)
Degree Days  
Heating Degree Days 9    
Growing Degree Days 6 (Base 50)    
Moisture  
Dew Point 47 °F    
Average Humidity 88    
Maximum Humidity 100    
Minimum Humidity 47    
Precipitation  
Precipitation 0.00 in - - ()
Sea Level Pressure  
Sea Level Pressure 30.28 in    
Wind  
Wind Speed 1 mph (SW)    
Max Wind Speed 10 mph    
Max Gust Speed -    
Visibility 4 miles    
Events Fog    
Averages and records for this station are not official NWS values.
T = Trace of Precipitation, MM = Missing Value Source: NWS Daily Summary

Daily Weather History Graph

Daily Weather History Graph

Search for Another Location

Airport:

Trip Planner

Search our weather history database for the weather conditions in past years. The results will help you decide how hot, cold, wet, or windy it might be!

Date:

Astronomy

Sep. 28, 2013 Rise Set
Actual Time 7:01 AM EDT 6:53 PM EDT
Civil Twilight 6:33 AM EDT 7:21 PM EDT
Nautical Twilight 6:01 AM EDT 7:54 PM EDT
Astronomical Twilight 5:28 AM EDT 8:27 PM EDT
Moon 12:41 AM EDT (9/28) 3:16 PM EDT (9/28)
Length of Visible Light 12h 48m
Length of Day
11h 52m
Last Quarter, 36% of the Moon is Illuminated
Sep 28
Last Quarter
Oct 4
New
Oct 11
First Quarter
Oct 18
Full
Oct 26
Last Quarter

Hourly Weather History & Observations

Time (EDT) Temp. Dew Point Humidity Pressure Visibility Wind Dir Wind Speed Gust Speed Precip Events Conditions
12:06 AM 46.4 °F 44.6 °F 93% 30.27 in 1.8 mi Calm Calm - N/A   Clear
12:15 AM 46.4 °F 44.6 °F 93% 30.27 in 0.5 mi Calm Calm - N/A Fog Fog
12:23 AM 44.6 °F 44.6 °F 100% 30.27 in 1.0 mi Calm Calm - N/A   Mist
12:35 AM 46.4 °F 44.6 °F 93% 30.27 in 0.5 mi Calm Calm - N/A Fog Fog
12:53 AM 44.1 °F 42.1 °F 93% 30.28 in 0.5 mi Calm Calm - N/A Fog Fog
12:59 AM 44.6 °F 44.6 °F 100% 30.27 in 1.0 mi Calm Calm - N/A   Clear
1:09 AM 44.6 °F 44.6 °F 100% 30.27 in 0.5 mi Calm Calm - N/A Fog Fog
1:20 AM 42.8 °F 42.8 °F 100% 30.28 in 1.2 mi Calm Calm - N/A   Clear
1:25 AM 44.6 °F 42.8 °F 93% 30.28 in 0.8 mi Calm Calm - N/A   Mist
1:29 AM 44.6 °F 42.8 °F 93% 30.28 in 1.5 mi Calm Calm - N/A   Scattered Clouds
1:32 AM 44.6 °F 42.8 °F 93% 30.28 in 4.0 mi Calm Calm - N/A   Scattered Clouds
1:35 AM 46.4 °F 42.8 °F 87% 30.28 in 2.0 mi Calm Calm - N/A   Mostly Cloudy
1:38 AM 46.4 °F 44.6 °F 93% 30.28 in 1.0 mi Calm Calm - N/A   Mist
1:53 AM 45.0 °F 44.1 °F 97% 30.28 in 8.0 mi Calm Calm - N/A   Overcast
2:21 AM 48.2 °F 46.4 °F 93% 30.28 in 1.2 mi Calm Calm - N/A   Overcast
2:29 AM 48.2 °F 48.2 °F 100% 30.28 in 0.5 mi Calm Calm - N/A Fog Fog
2:36 AM 48.2 °F 46.4 °F 93% 30.28 in 0.2 mi Calm Calm - N/A Fog Fog
2:53 AM 48.0 °F 46.9 °F 96% 30.28 in 0.5 mi Calm Calm - N/A Fog Fog
3:26 AM 48.2 °F 46.4 °F 93% 30.27 in 0.2 mi Calm Calm - N/A Fog Fog
3:33 AM 48.2 °F 46.4 °F 93% 30.27 in 0.2 mi Calm Calm - N/A Fog Fog
3:53 AM 48.9 °F 46.9 °F 93% 30.28 in 0.2 mi Calm Calm - N/A Fog Fog
4:13 AM 48.2 °F 46.4 °F 93% 30.28 in 0.2 mi West 3.5 mph - N/A Fog Fog
4:53 AM 48.9 °F 46.9 °F 93% 30.28 in 0.2 mi WNW 3.5 mph - N/A Fog Fog
5:39 AM 48.2 °F 48.2 °F 100% 30.29 in 0.2 mi Calm Calm - N/A Fog Fog
5:53 AM 48.9 °F 48.0 °F 97% 30.29 in 0.2 mi Calm Calm - N/A Fog Fog
6:10 AM 48.2 °F 46.4 °F 93% 30.29 in 0.2 mi Calm Calm - N/A Fog Fog
6:53 AM 48.9 °F 48.0 °F 97% 30.31 in 0.2 mi Calm Calm - N/A Fog Fog
7:53 AM 48.9 °F 48.0 °F 97% 30.33 in 0.2 mi Calm Calm - N/A Fog Fog
8:53 AM 50.0 °F 48.9 °F 96% 30.34 in 0.5 mi Calm Calm - N/A Fog Fog
9:40 AM 51.8 °F 50.0 °F 94% 30.33 in 1.0 mi Calm Calm - N/A   Overcast
9:53 AM 51.1 °F 50.0 °F 96% 30.35 in 1.0 mi Calm Calm - N/A   Overcast
10:38 AM 51.8 °F 51.8 °F 100% 30.34 in 2.0 mi Calm Calm - N/A   Overcast
10:44 AM 53.6 °F 51.8 °F 94% 30.33 in 8.0 mi Calm Calm - N/A   Overcast
10:53 AM 54.0 °F 51.1 °F 90% 30.34 in 9.0 mi Calm Calm - N/A   Mostly Cloudy
11:02 AM 55.4 °F 51.8 °F 88% 30.33 in 10.0 mi Calm Calm - N/A   Scattered Clouds
11:53 AM 62.1 °F 53.1 °F 72% 30.32 in 10.0 mi Calm Calm - N/A   Scattered Clouds
12:53 PM 64.9 °F 53.1 °F 65% 30.30 in 10.0 mi WNW 3.5 mph - N/A   Scattered Clouds
1:53 PM 69.1 °F 52.0 °F 54% 30.27 in 10.0 mi Calm Calm - N/A   Overcast
2:53 PM 70.0 °F 50.0 °F 49% 30.26 in 10.0 mi South 6.9 mph - N/A   Partly Cloudy
3:53 PM 69.1 °F 50.0 °F 51% 30.24 in 10.0 mi SSE 5.8 mph - N/A   Mostly Cloudy
4:53 PM 70.0 °F 48.9 °F 47% 30.23 in 10.0 mi SE 10.4 mph - N/A   Partly Cloudy
5:53 PM 66.9 °F 48.9 °F 52% 30.23 in 10.0 mi South 5.8 mph - N/A   Partly Cloudy
6:53 PM 62.1 °F 50.0 °F 65% 30.24 in 10.0 mi SW 3.5 mph - N/A   Clear
7:53 PM 54.0 °F 48.9 °F 83% 30.25 in 10.0 mi Calm Calm - N/A   Clear
8:53 PM 51.1 °F 48.0 °F 89% 30.26 in 10.0 mi Calm Calm - N/A   Clear
9:53 PM 48.9 °F 46.9 °F 93% 30.25 in 5.0 mi Calm Calm - N/A   Clear
10:37 PM 46.4 °F 46.4 °F 100% 30.23 in 2.0 mi Calm Calm - N/A   Clear
10:53 PM 45.0 °F 44.1 °F 97% 30.24 in 4.0 mi Calm Calm - N/A   Clear
11:08 PM 46.4 °F 42.8 °F 87% 30.23 in 1.2 mi Calm Calm - N/A   Clear
11:14 PM 46.4 °F 44.6 °F 93% 30.23 in 10.0 mi Calm Calm - N/A   Partly Cloudy
11:53 PM 45.0 °F 44.1 °F 97% 30.23 in 10.0 mi Calm Calm - N/A   Partly Cloudy